Total_Precipitation_Accumulation
0.01 0.03 0.02 0.02 0.03 0.05 0.08 0.16 0.29 0.30 0.29 0.39 0.48 0.66 0.84 0.93 1.18 1.52 1.74 1.70 1.67 1.98 2.45 2.82 3.13 3.21 3.53 3.73 3.91 3.94 4.19 4.65 5.02 4.87 4.57 4.45 4.26 4.05 3.80 3.53 3.45 3.53 3.52 3.70
0.01 0.02 0.01 0.02 0.02 0.04 0.06 0.12 0.24 0.30 0.30 0.44 0.61 0.81 0.93 1.13 1.41 1.55 1.48 1.45 1.60 1.99 2.49 2.87 3.14 3.24 3.49 3.77 4.20 4.35 4.57 4.97 5.14 5.00 4.89 4.80 4.73 4.31 4.19 4.03 3.89 3.50 3.33 3.46
0.02 0.02 0.01 0.02 0.03 0.04 0.06 0.13 0.21 0.27 0.37 0.55 0.72 1.16 1.26 1.39 1.55 1.57 1.50 1.68 1.70 1.75 2.18 2.46 2.57 2.73 2.90 3.05 3.32 3.64 4.17 4.72 4.94 5.03 4.94 4.91 4.96 4.51 4.27 4.15 3.98 3.57 3.31 3.22
0.02 0.02 0.02 0.02 0.03 0.03 0.08 0.11 0.13 0.18 0.34 0.65 0.79 1.51 1.65 1.76 1.92 1.78 1.67 1.61 1.60 1.81 2.11 2.13 1.95 2.08 2.34 2.33 2.65 3.10 3.61 4.00 4.24 4.34 4.35 4.41 4.40 4.33 4.25 4.15 3.78 3.57 3.31 3.19
0.02 0.03 0.03 0.05 0.03 0.04 0.07 0.10 0.14 0.20 0.35 0.64 0.71 1.15 1.71 1.99 2.18 1.79 1.64 1.50 1.57 1.78 1.80 1.76 1.78 1.88 2.02 2.17 2.49 2.81 3.19 3.52 3.69 3.79 3.89 4.02 3.92 3.96 3.85 3.76 3.59 3.38 3.24 3.10
0.03 0.05 0.04 0.04 0.04 0.06 0.07 0.14 0.24 0.33 0.56 1.02 0.88 1.00 1.58 1.96 1.77 1.52 1.43 1.23 1.34 1.52 1.60 1.66 1.76 1.88 2.00 2.29 2.64 2.91 3.17 3.43 3.51 3.31 3.21 3.28 3.35 3.43 3.40 3.25 3.10 2.89 2.87 2.82
0.14 0.11 0.09 0.07 0.08 0.10 0.11 0.25 0.75 1.20 1.52 1.42 0.90 1.02 1.66 1.52 1.20 1.11 1.18 1.16 1.16 1.18 1.32 1.45 1.64 1.85 2.07 2.19 2.22 2.63 3.07 3.27 3.18 2.95 2.79 2.75 2.91 3.04 2.98 2.86 2.82 2.75 2.63 2.59
0.29 0.27 0.15 0.11 0.14 0.16 0.16 0.28 0.80 1.13 1.24 1.21 1.00 1.43 1.96 1.50 1.06 0.90 1.00 1.00 0.90 0.83 0.80 0.89 1.08 1.20 1.35 1.39 1.40 1.58 1.87 2.10 2.20 2.13 2.20 2.29 2.37 2.45 2.46 2.66 2.53 2.55 2.47 2.37
0.18 0.17 0.13 0.14 0.19 0.20 0.27 0.31 0.34 0.58 0.81 1.23 1.28 1.49 1.64 1.34 1.03 0.98 1.07 1.01 0.80 0.75 0.70 0.79 0.92 0.96 1.03 1.06 1.11 1.24 1.50 1.78 1.84 1.86 1.95 2.04 2.11 2.19 2.22 2.27 2.22 2.21 2.27 2.21
0.12 0.13 0.14 0.13 0.17 0.21 0.23 0.31 0.48 0.76 1.02 1.21 1.33 1.72 1.93 1.72 1.40 1.21 1.20 1.10 0.83 0.72 0.70 0.77 0.88 0.92 1.03 1.13 1.29 1.42 1.54 1.68 1.71 1.71 1.74 1.72 1.89 1.97 2.01 2.00 1.92 1.95 2.02 2.00
0.09 0.11 0.16 0.21 0.24 0.25 0.26 0.35 0.51 0.70 0.76 1.01 1.45 1.63 1.41 1.33 1.32 1.45 1.35 1.13 0.87 0.72 0.68 0.75 0.87 0.98 1.09 1.19 1.28 1.42 1.55 1.69 1.68 1.61 1.69 1.83 1.95 2.04 1.93 1.85 1.74 1.81 1.92 1.97
0.10 0.13 0.19 0.28 0.24 0.19 0.25 0.36 0.52 0.79 0.83 0.86 1.06 1.28 0.92 0.94 1.05 1.15 1.16 0.95 0.77 0.73 0.72 0.77 0.89 1.00 1.22 1.28 1.30 1.34 1.47 1.64 1.68 1.70 1.81 2.08 2.10 2.08 1.97 1.81 1.74 1.81 1.90 1.92
0.16 0.17 0.30 0.59 0.54 0.30 0.28 0.28 0.38 0.54 0.66 0.76 1.02 1.24 0.86 0.94 1.07 1.07 1.05 0.94 0.87 0.81 0.82 0.91 0.99 0.96 1.12 1.28 1.36 1.43 1.54 1.64 1.81 1.89 2.00 2.19 2.21 2.12 1.92 1.83 1.80 1.84 1.90 1.96
0.14 0.16 0.28 0.68 0.72 0.48 0.35 0.31 0.34 0.47 0.60 0.59 0.63 0.91 0.94 0.93 1.07 1.12 1.13 1.06 0.99 0.87 0.90 1.08 1.19 1.19 1.21 1.25 1.37 1.49 1.58 1.66 1.69 1.73 1.82 1.92 1.90 1.90 1.82 1.84 1.83 1.82 1.84 1.85
0.15 0.19 0.19 0.30 0.41 0.44 0.40 0.34 0.31 0.33 0.36 0.51 0.60 0.82 1.03 1.04 1.09 1.05 1.03 0.98 0.96 0.92 0.91 1.02 1.02 1.05 1.04 1.04 1.13 1.31 1.28 1.36 1.51 1.62 1.69 1.74 1.80 1.84 1.85 1.78 1.69 1.74 1.80 1.77
0.21 0.26 0.25 0.32 0.41 0.45 0.43 0.39 0.34 0.32 0.30 0.38 0.51 0.73 0.81 0.90 0.97 1.04 1.06 1.04 0.97 0.95 1.08 0.97 0.88 0.85 1.00 1.05 1.06 1.19 1.19 1.25 1.41 1.48 1.53 1.72 1.83 1.84 1.81 1.71 1.72 1.77 1.82 1.88
0.34 0.38 0.37 0.41 0.50 0.62 0.64 0.41 0.38 0.40 0.37 0.49 0.77 0.90 0.90 1.06 1.08 1.01 1.02 1.03 0.92 0.90 1.04 1.04 1.02 0.90 0.96 1.08 1.14 1.15 1.23 1.28 1.34 1.40 1.48 1.56 1.65 1.70 1.60 1.53 1.59 1.65 1.74 1.87
0.40 0.57 0.59 0.56 0.74 0.93 0.76 0.45 0.40 0.45 0.45 0.47 0.63 0.74 0.83 1.07 1.12 0.94 0.86 0.87 0.84 0.83 0.85 0.94 1.02 1.06 1.14 1.11 1.23 1.39 1.46 1.41 1.41 1.55 1.65 1.62 1.70 1.85 1.86 1.81 1.81 1.89 1.95 1.95
0.34 0.55 0.63 0.71 0.88 0.89 0.76 0.61 0.55 0.62 0.72 0.57 0.63 0.71 0.80 0.82 0.92 1.00 0.82 0.85 0.87 0.79 0.82 0.87 0.94 1.08 1.23 1.23 1.28 1.51 1.59 1.64 1.66 1.71 1.83 1.83 1.83 1.99 2.10 2.09 2.14 2.21 2.25 2.12
0.44 0.57 0.74 0.73 0.93 1.09 0.91 0.73 0.66 0.76 1.24 0.90 0.74 0.72 0.81 0.87 1.21 1.29 0.97 0.89 0.88 0.85 0.93 1.03 1.07 1.20 1.27 1.33 1.54 1.73 1.78 1.91 1.99 1.95 1.99 2.08 2.16 2.22 2.31 2.52 2.72 2.78 2.78 2.71
0.88 0.92 0.93 0.92 1.01 1.02 0.87 0.72 0.74 1.29 1.55 1.00 0.81 0.75 0.79 0.89 1.04 1.10 0.96 0.90 0.94 1.01 1.15 1.30 1.47 1.56 1.60 1.56 1.69 1.93 2.11 2.18 2.24 2.37 2.42 2.47 2.57 2.65 2.72 2.98 3.11 3.13 3.10 3.21
1.18 1.22 1.18 1.21 1.42 1.44 1.01 1.00 1.21 1.44 1.26 1.07 1.02 0.97 0.89 0.89 0.93 1.07 1.12 1.12 1.13 1.14 1.29 1.36 1.50 1.65 1.76 1.88 2.02 2.23 2.26 2.33 2.56 2.60 2.56 2.65 2.87 2.81 2.85 3.11 3.09 3.15 3.31 3.33
1.21 1.28 1.33 1.41 1.52 1.39 1.21 1.32 1.38 1.28 1.36 1.29 1.14 1.15 1.07 1.02 0.95 0.97 1.11 1.20 1.24 1.18 1.25 1.39 1.40 1.51 1.74 1.90 2.03 2.27 2.45 2.48 2.54 2.62 2.66 2.81 3.02 3.17 3.25 3.43 3.51 3.45 3.38 3.30
1.39 1.21 1.39 1.60 1.67 1.55 1.58 1.53 1.45 1.41 1.41 1.28 1.12 1.17 1.18 1.10 1.02 1.04 1.14 1.18 1.16 1.14 1.21 1.32 1.35 1.50 1.66 1.78 2.00 2.28 2.41 2.42 2.59 2.69 2.75 2.87 3.03 3.16 3.25 3.41 3.46 3.43 3.33 3.25
1.63 1.55 1.79 2.03 2.05 2.03 2.03 1.84 1.58 1.43 1.31 1.24 1.17 1.21 1.22 1.20 1.19 1.14 1.18 1.25 1.16 1.07 1.14 1.27 1.31 1.42 1.58 1.60 1.80 2.08 2.29 2.43 2.65 2.80 2.87 2.99 3.11 3.26 3.37 3.29 3.35 3.38 3.31 3.20
1.75 1.89 2.13 2.33 2.12 2.12 2.20 1.95 1.62 1.54 1.57 1.52 1.53 1.52 1.48 1.46 1.40 1.24 1.17 1.18 1.15 1.12 1.18 1.33 1.38 1.44 1.52 1.54 1.71 1.93 2.17 2.41 2.74 2.86 2.90 2.94 3.00 3.12 3.13 3.13 3.11 3.13 3.03 2.99